ONEWEB-0012, 44057

Orbit data source: Space-Track

ONEWEB-0012, 44057 is a payload satellite owned by One Web (UK) in LEO that was launched on Wed, 27 Feb 2019 UTC via a SOYUZ-ST-B launch vehicle from the French Guiana (FRGUI). Payloads include a variety of satellites, spacecraft, and rockets equipped with specific instruments for various scientific and technological missions. These include communications satellites like Starlink; space stations such as the ISS; scientific satellites like the Hubble; Earth observation satellites from companies like Planet Labs, Umbra, and HawkEye 360; GPS; miniature CubeSats for education and research; and military/defense satellites.

Loading next visibility...
ONEWEB-0012 details
Identifier
44057, 2019-010A
Orbit
LEO
Last TLE update19 hours ago
Origin
Flag of UKOne Web (UK)
ManufacturerAirbus/Toulouse
MissionOperational Commercial Communications
Bus & MotorARROW, Unknown motor
Mass148 kg wet, ~140 kg dry
Launch date (UTC)
2019-02-27 (6 years ago)
Launch vehicle
SOYUZ-ST-B
Launch site
French Guiana (FRGUI)
Object type
Payload
Rocket body
Debris
Shape & HBRTrap Box + 2 Pan, 5 m
Radar Cross Section2.957 m², Large (>1 m²)

Expand to show TLE details & history

TLE from 19 hours ago
0 ONEWEB-0012
1 44057U 19010A   25014.42193034  .00000085  00000-0  19008-3 0  9993
2 44057  87.9112 332.1694 0001058  97.7454 262.3797 13.16593151283305
Epoch: 2025-01-14T10:07Z
Definitive object data (Epoch: 2025-01-14T10:07:34.781Z)
Latitude-0.00003°
Longitude66.14562°
Altitude1,200.764 km
Speed7.253 km/s
True Right ascension22h 08m 40s
True Declination0° 00' 00"
Sunlit
Object was in daylight at TLE epoch
Visualization TLE readout
Latitude54.88501°
Longitude68.95044°
Altitude1,206.282 km
Speed7.256 km/s
Apparent Right ascension19h 38m 40s
Apparent Declination16° 03' 03"
Sunlit
Object is in daylight
Visualization observer readout
Local Sidereal Time05:17:39
Azimuth322.221° NNW
Elevation-25.119°
Doppler factor1
Orbital elements
Apogee altitude1,195.673 km
Perigee altitude1,194.07 km
Semi-major axis7,573.008 km
Eccentricity0.0001058
Inclination87.9112°
RAAN332.1694°
Arg. of periapsis97.7454°
True anomaly262.36768°
Mean anomaly262.3797°
Eccentric anomaly262.37369°
Mean motion3.29337 °/min
BSTAR0.00019008
Orbital period109.31 mins
Loading maneuver chart data...
Loading historical data...
Loading historical data...
Loading historical data...
Loading historical data...
Loading historical data...
Loading historical data...
Loading historical data...

ONEWEB-0012 Visibility forecast

Observer location: undefined°, undefined

Span
Click to sort rows by Start time (UTC) header in descending order
Start Az.
Max El. time (UTC)
Max El. Az.
Max El.
End time (UTC)
End Az.
13 mins2025-01-15 08:36:34.441Z10.781° NNE2025-01-15 08:43:34.441Z92.961° ESE37.297°2025-01-15 08:49:34.441Z156.914° SSE
10 mins2025-01-15 10:27:34.441Z331.416° NNW2025-01-15 10:32:34.441Z278.598° WNW25.627°2025-01-15 10:37:34.441Z229.939° WSW
12 mins2025-01-15 20:53:34.441Z154.284° SSE2025-01-15 20:59:34.441Z69.87° E38.438°2025-01-15 21:05:34.441Z11.148° NNE
10 mins2025-01-15 22:44:34.441Z236.623° WSW2025-01-15 22:48:34.441Z278.362° WNW24.227°2025-01-15 22:54:34.441Z336.352° NNW
|